Frankfort, MI

11:19 AM EST on December 12, 2019 (GMT -0500)
Frankfort

Weather History for KFKS - October, 2019

Change the Weather History Date:

Wednesday, October 16, 2019

  Actual Average (WUND) Record (WUND)
Temperature  
Mean Temperature 50 °F -  
Max Temperature 52 °F - - (-1)
Min Temperature 49 °F - - (-1)
Degree Days  
Heating Degree Days 14    
Moisture  
Dew Point 42 °F    
Average Humidity 71    
Maximum Humidity 85    
Minimum Humidity 54    
Precipitation  
Precipitation 0.00 in - - ()
Sea Level Pressure  
Sea Level Pressure 29.71 in    
Wind  
Wind Speed 10 mph (NW)    
Max Wind Speed 18 mph    
Max Gust Speed 34 mph    
Visibility 10 miles    
Events Rain    
Averages and records for this station are not official NWS values.
T = Trace of Precipitation, MM = Missing Value Source: NWS Daily Summary

Daily Weather History Graph

Daily Weather History Graph

Search for Another Location

Airport or City:

Astronomy

Oct. 16, 2019 Rise Set
Actual Time 8:01 AM EDT 6:58 PM EDT
Civil Twilight 7:31 AM EDT 7:28 PM EDT
Nautical Twilight 6:57 AM EDT 8:02 PM EDT
Astronomical Twilight 6:24 AM EDT 8:35 PM EDT
Moon 8:46 PM EDT (10/16) 10:35 AM EDT (10/16)
Length of Visible Light 11h 56m
Length of Day
10h 57m
Waning Gibbous, 93% of the Moon is Illuminated
Oct 16
Waning Gibbous
Oct 21
Last Quarter
Oct 27
New
Nov 4
First Quarter
Nov 12
Full

Hourly Weather History & Observations

Time (EDT) Temp. Dew Point Humidity Pressure Visibility Wind Dir Wind Speed Gust Speed Precip Events Conditions
12:15 AM 52.3 °F 45.5 °F 78% 29.60 in 10.0 mi WSW 10.4 mph - N/A   Overcast
12:35 AM 52.2 °F 45.1 °F 77% 29.60 in 10.0 mi West 9.2 mph 17.3 mph N/A   Overcast
12:36 AM 52.2 °F 45.1 °F 77% 29.60 in 10.0 mi West 9.2 mph 17.3 mph N/A   Overcast
12:55 AM 52.2 °F 45.1 °F 77% 29.59 in 10.0 mi WSW 10.4 mph - N/A   Overcast
1:18 AM 52.0 °F 45.1 °F 77% 29.59 in 10.0 mi WSW 8.1 mph 16.1 mph N/A   Overcast
1:36 AM 52.0 °F 45.3 °F 78% 29.59 in 10.0 mi WSW 5.8 mph - N/A   Overcast
1:55 AM 51.8 °F 45.3 °F 79% 29.58 in 10.0 mi SW 5.8 mph 16.1 mph N/A   Overcast
2:15 AM 51.3 °F 45.5 °F 81% 29.57 in 10.0 mi SW 8.1 mph 16.1 mph N/A   Overcast
2:39 AM 50.9 °F 45.7 °F 82% 29.57 in 10.0 mi SSW 5.8 mph - N/A   Overcast
2:56 AM 51.1 °F 46.0 °F 83% 29.56 in 10.0 mi SW 8.1 mph - N/A   Overcast
3:15 AM 51.3 °F 46.4 °F 83% 29.55 in 10.0 mi South 5.8 mph - N/A   Overcast
3:16 AM 51.3 °F 46.4 °F 83% 29.55 in 10.0 mi SSW 5.8 mph - N/A   Overcast
3:35 AM 51.8 °F 46.6 °F 82% 29.54 in 10.0 mi South 6.9 mph - N/A   Overcast
3:55 AM 51.8 °F 46.6 °F 82% 29.53 in 10.0 mi SE 8.1 mph - N/A   Overcast
4:18 AM 52.2 °F 47.1 °F 83% 29.52 in 10.0 mi ESE 3.5 mph - N/A Rain Rain
4:36 AM 51.4 °F 46.6 °F 83% 29.51 in 10.0 mi ESE 5.8 mph - N/A   Light Drizzle
4:55 AM 50.9 °F 46.2 °F 84% 29.51 in 10.0 mi ESE 8.1 mph - N/A   Drizzle
4:56 AM 50.9 °F 46.2 °F 84% 29.51 in 10.0 mi ESE 6.9 mph - N/A   Drizzle
5:15 AM 50.4 °F 45.5 °F 83% 29.51 in 10.0 mi SE 5.8 mph - N/A Rain Light Rain
5:39 AM 50.4 °F 45.5 °F 83% 29.52 in 7.0 mi Calm Calm - N/A Rain Rain
5:57 AM 50.9 °F 46.6 °F 85% 29.53 in 10.0 mi NNW 16.1 mph 28.8 mph N/A Rain Rain
6:15 AM 51.4 °F 46.2 °F 82% 29.55 in 10.0 mi NNW 16.1 mph 32.2 mph N/A Rain Light Rain
6:16 AM 51.4 °F 46.0 °F 82% 29.55 in 10.0 mi NNW 13.8 mph 32.2 mph N/A Rain Light Rain
6:35 AM 50.9 °F 45.5 °F 82% 29.56 in 4.0 mi NNW 16.1 mph 27.6 mph N/A Rain Rain
6:55 AM 50.9 °F 45.0 °F 80% 29.57 in 5.0 mi NNW 18.4 mph 31.1 mph N/A Rain Rain
7:18 AM 50.4 °F 44.8 °F 81% 29.58 in 3.0 mi NNW 18.4 mph 34.5 mph N/A Rain Light Rain
7:29 AM 50.2 °F 44.2 °F 80% 29.59 in 5.0 mi North 18.4 mph 31.1 mph N/A Rain Light Rain
4:54 PM 49.6 °F 41.0 °F 72% 29.82 in - NW 15.0 mph - N/A   Unknown
4:55 PM 49.8 °F 41.0 °F 72% 29.82 in 10.0 mi NNW 16.1 mph 25.3 mph N/A   Unknown
5:15 PM 51.1 °F 39.4 °F 64% 29.83 in 10.0 mi NNW 15.0 mph 25.3 mph N/A   Light Drizzle
5:20 PM 50.2 °F 39.2 °F 66% 29.83 in 10.0 mi NNW 12.7 mph 25.3 mph N/A Rain Light Rain
5:38 PM 51.3 °F 36.1 °F 56% 29.83 in 10.0 mi NNW 15.0 mph 25.3 mph N/A   Overcast
5:56 PM 50.4 °F 38.1 °F 63% 29.84 in 10.0 mi NW 16.1 mph 28.8 mph N/A Rain Light Rain
6:15 PM 51.3 °F 36.1 °F 56% 29.85 in 10.0 mi NW 17.3 mph 24.2 mph N/A   Overcast
6:35 PM 51.4 °F 36.3 °F 56% 29.85 in 10.0 mi NNW 8.1 mph 21.9 mph N/A   Overcast
6:36 PM 51.4 °F 36.7 °F 57% 29.85 in 10.0 mi NNW 8.1 mph 21.9 mph N/A   Overcast
6:59 PM 51.8 °F 35.8 °F 54% 29.86 in 10.0 mi NNW 18.4 mph 25.3 mph N/A   Overcast
7:17 PM 51.4 °F 37.6 °F 59% 29.86 in 10.0 mi NNW 10.4 mph 28.8 mph N/A   Overcast
7:35 PM 51.1 °F 38.1 °F 61% 29.87 in 10.0 mi NNW 8.1 mph 24.2 mph N/A   Overcast
7:55 PM 51.3 °F 36.9 °F 58% 29.88 in 10.0 mi NNW 11.5 mph 24.2 mph N/A   Overcast
8:15 PM 51.3 °F 35.8 °F 55% 29.89 in 10.0 mi NNW 13.8 mph 26.5 mph N/A   Overcast
8:20 PM 51.3 °F 35.6 °F 55% 29.89 in 10.0 mi NNW 13.8 mph 26.5 mph N/A   Overcast
8:38 PM 50.9 °F 35.6 °F 56% 29.90 in 10.0 mi NNW 12.7 mph 24.2 mph N/A   Overcast
8:56 PM 50.9 °F 35.4 °F 55% 29.90 in 10.0 mi NNW 18.4 mph 26.5 mph N/A   Overcast
9:15 PM 50.0 °F 36.7 °F 60% 29.90 in 10.0 mi NNW 11.5 mph 23.0 mph N/A Rain Light Rain
9:35 PM 49.8 °F 36.3 °F 60% 29.91 in 10.0 mi NNW 11.5 mph 20.7 mph N/A   Overcast
10:17 PM 50.2 °F 35.6 °F 57% 29.91 in 10.0 mi NNW 12.7 mph 20.7 mph N/A   Overcast
10:35 PM 50.0 °F 34.9 °F 56% 29.92 in 10.0 mi NW 12.7 mph 24.2 mph N/A   Overcast
10:55 PM 50.0 °F 35.1 °F 57% 29.92 in 10.0 mi NNW 9.2 mph 19.6 mph N/A   Overcast
11:38 PM 49.1 °F 36.1 °F 61% 29.92 in 10.0 mi NW 9.2 mph 19.6 mph N/A Rain Light Rain
11:56 PM 49.6 °F 34.7 °F 56% 29.92 in 10.0 mi NNW 13.8 mph 19.6 mph N/A   Overcast